Location: Gull Harbor
(47.1000°N, 122.9000°W)
Time: 04:24:37
(UTC-07:00)

N. Korean satellite - Visible Passes

Search period start: 22 September 2017 00:00
Search period end: 02 October 2017 00:00
Orbit: 461 x 516 km, 97.2° (Epoch: 21 September)

Date Brightness Start Highest point End Pass type
(mag) Time Alt. Az. Time Alt. Az. Time Alt. Az.
22 Sep 9.9 20:20:50 10° SW 20:23:03 15° W 20:25:16 10° NW visible
23 Sep 9.2 19:56:29 10° SSW 19:59:40 26° W 20:02:51 10° NW visible
24 Sep 7.9 19:32:44 10° S 19:36:21 48° W 19:39:58 10° NNW visible
26 Sep 9.9 20:21:36 10° SW 20:23:43 14° W 20:25:49 10° NW visible
27 Sep 9.2 19:57:11 10° SSW 20:00:19 25° W 20:03:27 10° NW visible
28 Sep 7.9 19:33:24 10° S 19:36:59 46° W 19:40:34 10° NNW visible
30 Sep 9.9 20:22:21 10° WSW 20:24:20 14° W 20:26:20 10° WNW visible
01 Oct 9.2 19:57:51 10° SSW 20:00:56 24° W 20:03:59 10° NW visible
